Showing default

IRIDIUM 143, 43258

Orbit data source: Space-Track

IRIDIUM 143, 43258 is a payload satellite owned by Iridium (US) in LEO that was launched on Fri, 30 Mar 2018 UTC via an FALCON 9 launch vehicle from the Air Force Western Test Range (AFWTR). Payloads include a variety of satellites, spacecraft, and rockets equipped with specific instruments for various scientific and technological missions. These include communications satellites like Starlink; space stations such as the ISS; scientific satellites like the Hubble; Earth observation satellites from companies like Planet Labs, Umbra, and HawkEye 360; GPS; miniature CubeSats for education and research; and military/defense satellites.

Loading next visibility...
IRIDIUM 143 details
Identifier
43258, 2018-030K
Orbit
LEO
Last TLE update13 hours ago
Origin
Flag of USIridium (US)
ManufacturerOATK SSG Gilbert
MissionOperational Commercial Communications
Bus & MotorELITEBUS, Unknown motor
Mass860 kg wet, 700 kg dry
Launch date (UTC)
2018-03-30 (7 years ago)
Launch vehicle
FALCON 9
Launch site
Air Force Western Test Range (AFWTR)
Object type
Payload
Rocket body
Debris
Shape & HBRTrap Box + 2 Pan, 9.4 m
Radar Cross Section14.423 m², Large (>1 m²)

Expand to show TLE details & history

TLE from 13 hours ago
0 IRIDIUM 143
1 43258U 18030K   24361.00452818 -.00000273  00000-0 -10449-3 0  9993
2 43258  86.3998 155.5149 0001569 107.3376 252.7991 14.34219954352956
Epoch: 2024-12-26T00:06Z
Definitive object data (Epoch: 2024-12-26T00:06:31.234Z)
Latitude-0.00009°
Longitude58.89461°
Altitude781.043 km
Speed7.463 km/s
True Right ascension10h 22m 03s
True Declination0° 00' 00"
Sunlit
Object was in partial shadow at TLE epoch
Visualization TLE readout
Latitude-59.92172°
Longitude-115.12537°
Altitude801.652 km
Speed7.451 km/s
Apparent Right ascension23h 39m 14s
Apparent Declination-50° 54' 17"
Sunlit
Object is in daylight
Visualization observer readout
Local Sidereal Time12:18:17
Azimuth151.443° SSE
Elevation-77.074°
Doppler factor1
Orbital elements
Apogee altitude775.747 km
Perigee altitude773.502 km
Semi-major axis7,152.761 km
Eccentricity0.0001569
Inclination86.3998°
RAAN155.5149°
Arg. of periapsis107.3376°
True anomaly252.78193°
Mean anomaly252.7991°
Eccentric anomaly252.79051°
Mean motion3.58784 °/min
BSTAR-0.00010449
Orbital period100.34 mins
Loading maneuver chart data...
Loading historical data...
Loading historical data...
Loading historical data...
Loading historical data...
Loading historical data...
Loading historical data...
Loading historical data...

IRIDIUM 143 Visibility forecast

Observer location: undefined°, undefined

Span
Click to sort rows by Start time (UTC) header in descending order
Start Az.
Max El. time (UTC)
Max El. Az.
Max El.
End time (UTC)
End Az.
10 mins2024-12-26 22:26:41.710Z3.587° NNE2024-12-26 22:31:41.710Z95.384° ESE42.57°2024-12-26 22:36:41.710Z169.015° S
4 mins2024-12-27 09:45:41.710Z100.119° ESE2024-12-27 09:47:41.710Z73.897° E15.05°2024-12-27 09:49:41.710Z49.392° ENE
8 mins2024-12-27 11:23:41.710Z200.682° SSW2024-12-27 11:27:41.710Z284.029° WNW39.697°2024-12-27 11:31:41.710Z350.929° N
|